Weather reports worldwide

Advertisment
Berus, Germany (10704): temperature & dewpoint: 09.12.2018 07:00:00 - 15.12.2018 07:00:00 (CET)Berus, Germany (10704): temperature 5cm & temperature -5cm: 09.12.2018 07:00:00 - 15.12.2018 07:00:00 (CET)Berus, Germany (10704): temperature -20cm & temperature -100cm: 09.12.2018 07:00:00 - 15.12.2018 07:00:00 (CET)Berus, Germany (10704): wind speed & gusts: 09.12.2018 07:00:00 - 15.12.2018 07:00:00 (CET)Berus, Germany (10704): wind direction: 09.12.2018 07:00:00 - 15.12.2018 07:00:00 (CET)Berus, Germany (10704): reduced air pressure: 09.12.2018 07:00:00 - 15.12.2018 07:00:00 (CET)Berus, Germany (10704): visibility: 09.12.2018 07:00:00 - 15.12.2018 07:00:00 (CET)Berus, Germany (10704): sunshine duration: 09.12.2018 07:00:00 - 15.12.2018 07:00:00 (CET)Berus, Germany (10704): precipitation: 09.12.2018 07:00:00 - 15.12.2018 07:00:00 (CET)
Date & Time tt [°C] td [°C] tt 5cm [°C] tt -5cm [°C] tt -20cm [°C] tt -100cm [°C] ff [km/h] ff [kn] fx [km/h] fx [kn] dd ppp [hPa] vv [km] sd [min] rr [mm]
15.12.2018 07:00:00 -2,0 -6,6 -2,3 0,7 2,2 8,2 9 5 15 8 E 1025,7 32 0 0,0
15.12.2018 06:00:00 -2,0 -6,4 -2,3 0,7 2,2 8,3 7 4 19 11 ENE 1025,9 27 0 0,0
15.12.2018 05:00:00 -1,9 -6,8 -2,2 0,7 2,2 8,3 11 6 23 13 ENE 1025,8 29 0 0,0
15.12.2018 04:00:00 -1,9 -6,2 -2,3 0,7 2,3 8,3 9 5 18 10 ENE 1025,8 27 0 0,0
15.12.2018 03:00:00 -1,8 -6,1 -2,2 0,7 2,3 8,3 7 4 12 7 NE 1026,3 26 0 0,0
15.12.2018 02:00:00 -1,8 -6,4 -2,1 0,7 2,3 8,3 8 4 21 12 NE 1025,8 28 0 0,0
15.12.2018 01:00:00 -1,7 -6,5 -2,0 0,8 2,3 8,3 14 8 22 12 ENE 1025,2 29 0 0,0
15.12.2018 00:00:00 -1,6 -6,3 -2,0 0,8 2,3 8,3 11 6 26 14 ENE 1025,1 25 0 0,0
14.12.2018 23:00:00 -1,6 -6,6 -1,9 0,8 2,3 8,3 16 9 24 13 ENE 1024,7 30 0 0,0
14.12.2018 22:00:00 -1,5 -5,8 -1,8 0,8 2,3 8,4 13 7 19 10 ENE 1025,0 25 0 0,0
14.12.2018 21:00:00 -1,4 -5,7 -1,7 0,8 2,3 8,4 13 7 21 11 NE 1025,1 23 0 0,0
14.12.2018 20:00:00 -1,4 -5,0 -1,7 0,8 2,3 8,4 10 6 17 9 NE 1024,6 22 0 0,0
14.12.2018 19:00:00 -1,2 -5,4 -1,6 0,8 2,3 8,4 11 6 18 10 NE 1024,4 24 0 0,0
14.12.2018 18:00:00 -1,2 -5,3 -1,6 0,8 2,4 8,4 8 4 22 12 NE 1023,8 25 0 0,0
14.12.2018 17:00:00 -1,1 -5,6 -1,4 0,8 2,4 8,4 13 7 27 15 NE 1022,9 27 0 0,0
14.12.2018 16:00:00 -1,0 -5,5 -1,2 0,8 2,4 8,4 16 9 26 14 ENE 1022,4 29 0 0,0
14.12.2018 15:00:00 -0,9 -5,7 -0,9 0,8 2,4 8,4 16 9 26 14 ENE 1021,5 30 0 0,0
14.12.2018 14:00:00 -0,8 -5,7 -0,8 0,8 2,4 8,5 16 9 29 15 ENE 1021,1 30 0 0,0
14.12.2018 13:00:00 -0,8 -5,7 -0,6 0,8 2,4 8,5 19 10 31 17 ENE 1021,0 29 0 0,0
14.12.2018 12:00:00 -0,8 -5,6 -0,7 0,8 2,4 8,5 19 11 32 18 ENE 1021,3 32 0 0,0
14.12.2018 11:00:00 -1,0 -5,3 -0,9 0,8 2,4 8,5 19 10 30 16 NE 1021,3 28 0 0,0
14.12.2018 10:00:00 -1,1 -5,7 -1,2 0,8 2,4 8,5 18 10 36 20 ENE 1021,0 31 0 0,0
14.12.2018 09:00:00 -1,2 -6,1 -1,4 0,8 2,4 8,5 26 14 42 23 ENE 1020,2 32 0 0,0
14.12.2018 08:00:00 -1,3 -6,1 -1,6 0,8 2,4 8,5 24 13 44 24 ENE 1019,3 32 0 0,0
14.12.2018 07:00:00 -1,3 -6,1 -1,6 0,8 2,5 8,5 23 12 42 23 ENE 1018,8 33 0 0,0
14.12.2018 06:00:00 -1,3 -6,0 -1,6 0,8 2,5 8,6 22 12 39 21 ENE 1019,0 35 0 0,0
14.12.2018 05:00:00 -1,4 -5,9 -1,7 0,8 2,5 8,6 25 13 39 21 NE 1018,7 33 0 0,0
14.12.2018 04:00:00 -1,3 -5,7 -1,6 0,8 2,5 8,6 25 13 37 20 NE 1018,7 31 0 0,0
14.12.2018 03:00:00 -1,2 -5,8 -1,5 0,9 2,5 8,6 24 13 38 21 NE 1018,8 33 0 0,0
14.12.2018 02:00:00 -1,3 -5,4 -1,6 0,9 2,5 8,6 23 12 39 21 NE 1018,6 31 0 0,0
14.12.2018 01:00:00 -1,2 -5,7 -1,5 0,9 2,5 8,6 25 13 39 21 NE 1018,2 33 0 0,0
14.12.2018 00:00:00 -1,0 -5,7 -1,4 0,9 2,6 8,6 28 15 46 25 NE 1018,4 37 0 0,0
13.12.2018 23:00:00 -1,1 -5,6 -1,6 0,9 2,6 8,6 27 15 43 23 NE 1017,8 35 0 0,0
13.12.2018 22:00:00 -1,2 -5,7 -1,7 0,9 2,6 8,7 25 14 44 24 NE 1017,9 38 0 0,0
13.12.2018 21:00:00 -1,2 -5,7 -1,7 0,9 2,6 8,7 30 16 45 24 NE 1017,6 37 0 0,0
13.12.2018 20:00:00 -1,1 -5,4 -1,6 0,9 2,6 8,7 27 15 41 22 NE 1017,6 32 0 0,0
13.12.2018 19:00:00 -1,1 -4,8 -1,5 0,9 2,6 8,7 23 13 40 22 NE 1017,7 29 0 0,0
13.12.2018 18:00:00 -1,2 -4,4 -1,5 0,9 2,6 8,7 20 11 35 19 NE 1017,7 27 0 0,0
13.12.2018 17:00:00 -0,8 -4,6 -1,2 0,9 2,7 8,7 21 11 36 19 NE 1017,4 30 0 0,0
13.12.2018 16:00:00 -0,7 -4,7 -1,0 0,9 2,7 8,7 21 11 40 22 NE 1017,3 31 0 0,0
13.12.2018 15:00:00 -0,5 -4,7 -0,7 0,9 2,7 8,7 27 15 45 24 ENE 1017,0 36 0 0,0
13.12.2018 14:00:00 -0,4 -4,5 -0,4 0,9 2,7 8,7 27 14 46 25 ENE 1017,1 44 4 0,0
13.12.2018 13:00:00 -0,7 -4,6 -0,8 0,9 2,7 8,8 27 15 53 29 ENE 1017,4 37 16 0,0
13.12.2018 12:00:00 -0,9 -4,4 -0,3 0,9 2,8 8,8 27 15 52 28 ENE 1017,7 33 24 0,0
13.12.2018 11:00:00 -0,7 -4,2 0,5 0,9 2,8 8,8 28 15 44 24 ENE 1018,0 42 59 0,0
13.12.2018 10:00:00 -1,2 -4,1 -0,8 0,9 2,8 8,8 23 12 42 23 NE 1018,3 40 27 0,0
13.12.2018 09:00:00 -1,7 -3,5 -2,2 0,9 2,9 8,8 21 11 37 20 NE 1018,7 27 0 0,0
13.12.2018 08:00:00 -2,2 -3,9 -3,8 0,9 2,9 8,8 21 11 31 17 ENE 1018,8 30 0 0,0
13.12.2018 07:00:00 -2,5 -4,1 -4,0 1,0 2,9 8,8 19 11 25 14 NE 1018,9 24 0 0,0
13.12.2018 06:00:00 -2,1 -4,1 -3,7 1,1 3,0 8,9 21 11 34 18 NE 1019,2 42 0 0,0
13.12.2018 05:00:00 -2,2 -3,9 -3,6 1,1 3,0 8,9 16 9 29 16 NE 1019,7 38 0 0,0
13.12.2018 04:00:00 -1,7 -3,4 -3,3 1,2 3,0 8,9 19 10 30 16 NE 1020,2 36 0 0,0
13.12.2018 03:00:00 -1,1 -2,8 -2,7 1,2 3,1 8,9 18 10 30 16 ENE 1020,7 39 0 0,0
13.12.2018 02:00:00 -1,2 -2,0 -2,4 1,3 3,1 8,9 19 10 26 14 NE 1021,0 25 0 0,0
13.12.2018 01:00:00 -0,8 -1,5 -2,0 1,3 3,1 8,9 18 10 25 13 NE 1021,5 19 0 0,0
13.12.2018 00:00:00 0,0 -0,9 -0,7 1,3 3,1 8,9 19 10 27 15 NE 1021,7 19 0 0,0
12.12.2018 23:00:00 0,0 -1,0 -0,8 1,4 3,2 8,9 19 10 29 16 NE 1022,0 18 0 0,0
12.12.2018 22:00:00 0,0 -0,8 -0,5 1,4 3,2 8,9 18 10 24 13 NE 1022,4 18 0 0,0
12.12.2018 21:00:00 -0,1 -0,9 -0,6 1,5 3,2 9,0 18 10 24 13 NE 1022,8 19 0 0,0
12.12.2018 20:00:00 -0,2 -0,9 -0,8 1,6 3,3 9,0 15 8 26 14 NE 1023,2 17 0 0,0
12.12.2018 19:00:00 0,7 -0,1 0,2 1,8 3,3 9,0 15 8 21 11 NE 1023,1 13 0 0,0
12.12.2018 18:00:00 0,7 0,0 0,1 2,0 3,2 9,0 12 7 23 12 NE 1023,2 10 0 0,0
12.12.2018 17:00:00 0,7 0,1 0,4 2,2 3,1 9,0 11 6 24 13 NE 1023,3 8 0 0,0
12.12.2018 16:00:00 1,4 0,0 1,4 2,2 3,1 9,0 9 5 10 6 NNE 1023,3 12 19 0,0
12.12.2018 15:00:00 1,9 -0,3 4,1 1,6 3,1 9,0 6 3 11 6 NE 1023,4 16 60 0,0
12.12.2018 14:00:00 1,0 -0,5 3,5 1,1 3,1 9,0 9 5 13 7 NE 1024,1 15 60 0,0
12.12.2018 13:00:00 0,1 -1,1 2,6 1,0 3,1 9,0 9 5 13 7 NE 1024,9 12 60 0,0
12.12.2018 12:00:00 -0,7 -1,4 1,6 1,0 3,2 9,1 10 5 13 7 NNE 1025,6 7 60 0,0
12.12.2018 11:00:00 -1,6 -1,9 0,0 1,0 3,2 9,1 8 4 15 8 NNE 1026,0 3,6 48 0,0
12.12.2018 10:00:00 -3,4 -3,7 -2,3 1,0 3,2 9,1 10 5 14 8 NNE 1026,3 0,5 1 0,0
12.12.2018 09:00:00 -3,1 -3,3 -3,9 1,0 3,3 9,1 9 5 14 8 NNE 1026,2 1,9 0 0,0
12.12.2018 08:00:00 -2,8 -2,9 -4,7 1,1 3,3 9,1 9 5 15 8 NE 1025,9 2,3 0 0,0
12.12.2018 07:00:00 -3,6 -3,6 -3,5 1,2 3,4 9,1 10 6 16 8 NNE 1025,9 0,1 0 0,0
12.12.2018 06:00:00 -1,8 -1,9 -3,3 1,2 3,4 9,1 10 5 12 7 NNE 1025,4 1,2 0 0,0
12.12.2018 05:00:00 -1,0 -1,2 -5,3 1,3 3,5 9,1 5 3 10 5 N 1025,4 9 0 0,0
12.12.2018 04:00:00 -2,5 -3,6 -4,0 1,3 3,5 9,1 5 3 11 6 N 1025,9 6 0 0,0
12.12.2018 03:00:00 -2,5 -2,8 -3,9 1,3 3,6 9,1 9 5 12 7 N 1025,8 0,3 0 0,0
12.12.2018 02:00:00 -0,4 -1,3 -2,8 1,4 3,6 9,2 4 2 13 7 WNW 1025,4 10 0 0,0
12.12.2018 01:00:00 -1,4 -2,0 -2,7 1,4 3,7 9,2 6 4 16 9 N 1026,0 6 0 0,0
12.12.2018 00:00:00 0,5 -0,8 -1,7 1,5 3,7 9,2 10 5 17 9 NW 1025,6 26 0 0,0
11.12.2018 23:00:00 -0,3 -1,0 -1,6 1,5 3,8 9,2 7 4 18 10 W 1025,9 12 0 0,0
11.12.2018 22:00:00 0,7 -0,5 -0,4 1,6 3,9 9,2 14 8 20 11 WNW 1025,5 20 0 0,0
11.12.2018 21:00:00 0,7 -0,5 -0,8 1,6 3,9 9,2 13 7 19 10 WNW 1025,7 20 0 0,0
11.12.2018 20:00:00 0,5 -0,3 -1,2 1,7 4,0 9,2 14 8 19 10 WNW 1025,9 24 0 0,0
11.12.2018 19:00:00 -0,1 -0,4 -1,4 1,8 4,1 9,2 11 6 13 7 WSW 1025,9 10 0 0,0
11.12.2018 18:00:00 0,4 -0,1 -1,3 2,0 4,2 9,2 11 6 15 8 WSW 1025,8 13 0 0,0
11.12.2018 17:00:00 0,8 -0,2 -0,7 2,7 4,1 9,2 11 6 15 8 WSW 1025,5 22 15 0,0
11.12.2018 16:00:00 2,3 0,3 1,0 3,3 4,0 9,2 9 5 17 9 SW 1025,2 25 23 0,0
11.12.2018 15:00:00 2,0 0,4 2,0 3,3 3,9 9,2 9 5 16 8 WSW 1025,5 22 9 0,0
11.12.2018 14:00:00 0,7 0,0 0,9 2,7 3,9 9,2 10 5 21 12 W 1026,1 12 26 0,0
11.12.2018 13:00:00 -0,2 -0,3 0,2 1,9 4,0 9,2 12 6 23 13 W 1026,5 1,6 0 0,0
11.12.2018 12:00:00 -0,3 -0,3 0,4 1,5 4,0 9,3 13 7 18 10 W 1026,8 0,2 2 0,0
11.12.2018 11:00:00 -0,3 -0,4 1,2 1,5 4,1 9,3 9 5 18 10 W 1027,0 0,3 40 0,0
11.12.2018 10:00:00 0,2 0,0 0,2 1,6 4,2 9,3 13 7 16 9 W 1026,7 7 60 0,0
11.12.2018 09:00:00 -0,5 -0,5 -1,9 1,6 4,2 9,3 9 5 15 8 W 1026,6 1,5 7 0,0
11.12.2018 08:00:00 -0,1 -0,4 -1,8 1,6 4,3 9,3 4 2 22 12 SW 1026,5 7 0 0,0
11.12.2018 07:00:00 0,2 -0,1 -0,9 1,7 4,4 9,3 16 9 24 13 W 1026,3 9 0 0,0
11.12.2018 06:00:00 0,4 -0,1 -0,8 1,7 4,5 9,3 14 8 24 13 W 1026,4 17 0 0,0
11.12.2018 05:00:00 0,3 -0,1 -1,2 1,8 4,6 9,3 11 6 17 9 W 1026,6 16 0 0,0
11.12.2018 04:00:00 0,3 -0,2 -1,6 1,8 4,8 9,3 7 4 18 10 WSW 1026,6 19 0 0,0
11.12.2018 03:00:00 0,5 0,0 -0,9 2,0 4,9 9,3 10 5 19 10 WSW 1026,5 14 0 0,0
11.12.2018 02:00:00 1,6 0,6 0,7 2,1 5,1 9,3 11 6 16 9 WSW 1026,4 34 0 0,0
11.12.2018 01:00:00 1,4 0,2 -0,8 2,4 5,2 9,3 9 5 13 7 W 1026,4 45 0 0,0
11.12.2018 00:00:00 2,1 0,5 0,0 2,5 5,4 9,3 6 4 18 10 W 1026,3 41 0 0,0
10.12.2018 23:00:00 2,0 0,5 0,2 3,0 5,5 9,3 12 6 24 13 W 1026,2 51 0 0,0
10.12.2018 22:00:00 3,0 0,7 1,4 3,3 5,6 9,3 10 5 30 16 NW 1025,9 53 0 0,0
10.12.2018 21:00:00 3,5 0,9 2,1 3,6 5,7 9,3 16 9 34 19 WNW 1025,3 52 0 0,0
10.12.2018 20:00:00 3,4 1,6 1,8 4,0 5,8 9,3 18 10 37 20 WNW 1025,2 49 0 0,0
10.12.2018 19:00:00 3,7 2,5 2,7 4,5 5,9 9,3 16 9 31 17 WNW 1025,1 40 0 0,0
10.12.2018 18:00:00 4,1 1,9 3,5 4,6 6,0 9,3 20 11 40 22 W 1024,6 42 0 0,0
10.12.2018 17:00:00 4,4 1,6 3,1 5,4 5,9 9,3 18 10 36 19 W 1024,3 67 5 0,0
10.12.2018 16:00:00 5,4 2,0 4,7 6,1 5,8 9,3 20 11 33 18 W 1024,1 56 42 0,0
10.12.2018 15:00:00 6,2 2,3 6,7 6,3 5,6 9,3 18 10 38 21 W 1023,8 52 34 0,0
10.12.2018 14:00:00 6,2 3,1 7,7 5,8 5,5 9,3 21 11 41 22 W 1024,0 54 9 0,0
10.12.2018 13:00:00 5,6 2,8 5,9 5,5 5,4 9,4 16 8 29 15 WSW 1024,3 52 23 0,0
10.12.2018 12:00:00 5,1 3,4 5,4 4,6 5,3 9,4 16 9 29 16 W 1025,1 45 4 0,0
10.12.2018 11:00:00 4,3 3,1 4,3 3,9 5,4 9,4 12 7 29 16 WSW 1025,2 40 22 0,0
10.12.2018 10:00:00 3,9 2,4 4,0 3,2 5,4 9,4 13 7 29 16 WSW 1024,6 38 60 0,0
10.12.2018 09:00:00 2,7 2,3 1,7 3,2 5,5 9,4 14 8 29 16 WSW 1024,3 24 9 0,0
10.12.2018 08:00:00 2,7 2,3 1,7 3,3 5,6 9,4 13 7 29 15 W 1024,0 19 0 0,0
10.12.2018 07:00:00 3,0 2,6 2,2 3,4 5,7 9,4 16 9 34 19 WSW 1023,2 19 0 0,1
10.12.2018 06:00:00 3,2 2,6 2,5 3,4 5,9 9,4 17 9 27 14 WSW 1022,7 22 0 0,0
10.12.2018 05:00:00 3,5 2,4 2,3 3,6 6,0 9,4 16 9 34 18 WSW 1022,1 37 0 0,0
10.12.2018 04:00:00 3,3 2,3 2,1 3,8 6,1 9,4 19 10 37 20 W 1021,7 39 0 0,0
10.12.2018 03:00:00 3,6 2,8 3,1 3,9 6,2 9,4 21 12 39 21 WSW 1021,3 38 0 0,0
10.12.2018 02:00:00 3,3 2,4 2,2 4,2 6,3 9,4 23 12 36 20 WSW 1020,3 44 0 0,0
10.12.2018 01:00:00 3,7 2,3 2,7 4,6 6,4 9,4 17 9 38 20 SW 1019,7 48 0 0,0
10.12.2018 00:00:00 4,4 2,7 3,6 4,7 6,5 9,4 16 9 34 19 W 1019,2 54 0 0,0
09.12.2018 23:00:00 4,2 2,7 2,7 5,0 6,6 9,4 18 10 32 17 W 1018,1 48 0 0,0
09.12.2018 22:00:00 4,8 3,8 4,1 5,4 6,7 9,4 15 8 40 21 WNW 1016,6 28 0 0,4
09.12.2018 21:00:00 5,3 3,6 4,8 5,3 6,8 9,4 18 10 37 20 W 1015,6 64 0 0,0
09.12.2018 20:00:00 5,0 3,5 3,7 5,5 6,9 9,4 16 9 36 19 WSW 1014,1 59 0 0,0
09.12.2018 19:00:00 5,6 4,6 4,2 6,1 6,9 9,4 18 10 37 20 W 1012,3 66 0 0,7
09.12.2018 18:00:00 5,8 5,5 5,5 6,3 6,9 9,4 23 13 41 22 W 1010,9 9 0 0,1
09.12.2018 17:00:00 6,1 4,9 5,3 6,5 6,9 9,4 24 13 46 25 W 1009,0 59 0 0,0
09.12.2018 16:00:00 6,4 5,7 5,7 6,6 6,9 9,4 29 16 61 33 WSW 1007,6 48 0 0,9
09.12.2018 15:00:00 6,4 5,9 6,1 6,6 6,9 9,4 36 19 68 37 WSW 1006,2 6 0 0,5
09.12.2018 14:00:00 6,4 5,6 6,3 6,5 6,9 9,4 39 21 72 39 WSW 1005,5 43 0 0,8
09.12.2018 13:00:00 6,0 5,7 5,8 6,4 6,9 9,4 32 18 71 39 WSW 1005,7 6 0 2,4
09.12.2018 12:00:00 6,1 5,4 5,7 6,4 6,9 9,4 40 21 68 37 WSW 1005,9 13 0 0,2
09.12.2018 11:00:00 6,1 5,3 5,8 6,2 6,9 9,4 40 22 63 34 WSW 1005,8 13 0 0,8
09.12.2018 10:00:00 5,7 5,2 5,3 6,1 7,0 9,4 40 21 66 36 WSW 1005,8 6 0 1,7
09.12.2018 09:00:00 5,9 4,8 5,3 6,1 7,0 9,4 42 23 69 38 WSW 1005,2 14 0 0,8
09.12.2018 08:00:00 6,3 4,1 5,9 6,1 7,0 9,4 40 22 71 38 WSW 1004,7 29 0 0,0
09.12.2018 07:00:00 6,3 3,8 5,8 6,3 7,1 9,4 41 22 80 43 WSW 1004,3 48 0 0,0

tt = temperature
td = dewpoint
tt 5cm = temperature 5cm
tt -5cm = temperature -5cm
tt -20cm = temperature -20cm
tt -100cm = temperature -100cm
ff = wind speed
fx = gusts
dd = wind direction
ppp = reduced air pressure
vv = visibility
sd = sunshine duration
rr = precipitation

Next stations